FENGYUN 1C DEB

Satellite information

Favourite Embed

Satellite Type and Status

DEBRISIN ORBIT

Key statistics

Satellite FENGYUN 1C DEB at a glance.

Uptime

9617

Days in orbit

Revolutions

≈ 14.2

Per day

Orbit

SSO

Sun Synchronous Orbit

Inclination

98.3

Latest

Satellite identification and parameters

Extended collection of information and parameters for FENGYUN 1C DEB.

Object identification

Identified? True

Debris? True

Object name: FENGYUN 1C DEB

International designator: 1999-025FW

Object number (NORAD): 29876

Object ID (CCSDS): 29876

Country: PEOPLES REPUBLIC OF CHINA (PRC)

Current information (Y/N): Y

RCS size: SMALL

Orbital parameters

Period: 101.394 minutes

Inclination: 98.349 deg

SMA: 7202.79 km

Apoapsis: 868.07 km

Periapsis: 781.241 km

RAAN: 305.2941 deg

Eccentricy: 0.00602745

Argument of periapsis: 300.9769 deg

Mean anomaly: 127.0443 deg

Mean motion: 14.20206868 rev/day

Mean motion (dot): 0.00000367 rev/day2

B* drag term: 0.00018774744 1/REarth

Two-line elements (TLE)

Creation date: Sept. 6, 2025, 10:23 a.m.

Reference frame: TEME

Reference center: EARTH

Epoch: Sept. 6, 2025, 4:15 a.m. UTC

TLE line 0: 0 FENGYUN 1C DEB

TLE line 1: 1 29876U 99025FW 25249.17735931 .00000367 00000-0 18775-3 0 9992

TLE line 2: 2 29876 98.3490 305.2941 0060274 300.9769 127.0443 14.20206868965327

Live tracking on map

Real-time ground track for satellite FENGYUN 1C DEB.

In-orbit conjunctions

A list of the most updated potential collisions computed for object FENGYUN 1C DEB.

Target Orbit TCA Probability of collision Miss distance Type
NOAA 16 DEB SSO 2025-07-23 14:54:12 0.0001027559 302.0 (m) DEBRIS
METEOR 2-5 DEB LEO 2025-07-22 12:39:11 0.0002618039 211.0 (m) DEBRIS
METEOR 2-5 DEB LEO 2024-07-26 21:17:32 0.0002977357 73.0 (m) DEBRIS

Associated space launch

Chinese polar orbiting meteorological satellite

FENGYUN 1C DEB was lifted into orbit during the mission ‘Long March 4B | Feng Yun 1C’, on board a Long March 4B space rocket.

The launch took place on May 10, 1999, 1:33 a.m. from Launch Complex 7.

For more information about the launch, click the button.

Launch to space Long March 4B | Feng Yun 1C
Long March 4B | Feng Yun 1C

Agency: N/A

Status: Launch Successful

Launch date: May 10, 1999, 1:33 a.m. UTC

Rocket: Long March 4B

Launch pad: Launch Complex 7

Location: Taiyuan Satellite Launch Center, People's Republic of China

...

Latest news about this satellite

There are no fresh news available about this satellite. Check back as we update our databases every day.


Newsletter sign-up

Weekly statistics, charts and insights to help you stay on top of the space industry.